ONEWEB-0026 (45139 NORAD) Tracking and Keplerian Element Data

This shows tracking and keplerian element data for the satellite.

Feedback or suggestion? Click here.




ElementValue
Catalog45139
NameONEWEB-0026
Epoch Orbit944
Epoch Day93.79281169
Epoch Year2020
RAAN145.3469
Inclination87.5717
Eccentricity0.0025697
Argument of Perigee79.6469
Mean Anonmoly280.7659
Mean Motion14.99364134
Decay Rate-0.00252299
L11 45139U 20008J 20093.79281169 -.00252299 00000-0 -21243-1 0 9993
L22 45139 87.5717 145.3469 0025697 79.6469 280.7659 14.99364134 9449

Live tracking and technical data element details for ONEWEB-0026 (NORAD 45139). ONEWEB-0026 can be tracked NOW for your location showing map with azimuth and elevation plus other details from your city location.

Track the satellite on the map from your city or location and see movement details for azimuth, elevation, latitude, longitude, range, height, and movement on the map or in text.







IsCatalogInMostPopularTable: catalog: 45139, numindb: 12
Update: records affected: 1



GetName: 45139 ONEWEB-0026

Hit Count: updated at: Tue, 07 Apr 2020 16:47:47 GMT